COSMOS 1953

Last updated on Wed Oct 22 2025 00:02:14 GMT+0000 (Coordinated Universal Time)

1 19210U 88050A 25294.59132871 .00008963 00000+0 34578-3 0 9997 2 19210 82.5059 297.8852 0010062 249.8486 110.1670 15.26107586 16559
UTC large
Height (km)
Speed (km/s)
/
Latitude / Longitude
Inclination (degrees)
Orbital Period (minutes)
Azimuth
Elevation
Range (km)
Doppler Factor

Next 0 passes for location: London (51.5072 / 0.1276)

Sorry there are no passes over London.